Location: ????????
(48.4751°N, 37.6926°E)
Time: 12:27:11
(UTC+00:00)

COSMO-SKYMED 1 - Pass Details

Date: 20 January 2021
Orbit: 621 x 623 km, 97.9° (Epoch: 27 February)

Event Time Altitude Azimuth Distance (km) Brightness Sun altitude
Exits shadow 16:18:27 - 6° (N) 2,635 5.7 -21.0°
Reaches altitude 10° 16:20:02 10° 1° (N) 2,006 5.1 -21.3°
Maximum altitude 16:24:09 42° 291° (WNW) 888 3.7 -22.0°
Drops below altitude 10° 16:28:14 10° 220° (SW) 1,990 5.7 -22.6°
Sets 16:30:30 0° 214° (SSW) 2,891 6.5 -23.0°
